Location: Drocourt
(49.0571°N, 1.7669°E)
Time: 03:28:48
(UTC+00:00)

Transit 4A - Pass Details

Date: 14 April 2024
Orbit: 871 x 971 km, 66.8° (Epoch: 19 May)

Event Time Altitude Azimuth Distance (km) Brightness Sun altitude
Rises 23:08:58 0° 320° (NW) 3,471 11.8 -30.3°
Reaches altitude 10° 23:11:33 10° 314° (NW) 2,528 10.8 -30.4°
Enters shadow 23:15:52 38° 274° (W) 1,302 8.7 -30.5°
Maximum altitude 23:17:00 43° 245° (WSW) 1,217 - -30.6°
Drops below altitude 10° 23:22:28 10° 176° (S) 2,535 - -30.7°
Sets 23:25:04 0° 169° (S) 3,481 - -30.8°
